Location: Ponte Samoggia
(44.5667°N, 11.1333°E)
Time: 12:09:01
(UTC+00:00)

Cosmos 2341 Rocket - Visible Passes

Search period start: 26 September 2022 00:00
Search period end: 06 October 2022 00:00
Orbit: 968 x 1004 km, 82.9° (Epoch: 25 September)

Date Brightness Start Highest point End Pass type
(mag) Time Alt. Az. Time Alt. Az. Time Alt. Az.
26 Sep 5.4 01:11:38 32° N 01:11:38 32° N 01:14:50 10° N visible
26 Sep 5.9 02:56:33 14° NW 02:56:33 14° NW 02:58:31 10° NNW visible
26 Sep 6.3 23:55:26 17° NE 23:55:26 17° NE 23:57:11 10° NNE visible
27 Sep 5.5 01:40:20 27° NNW 01:40:20 27° NNW 01:43:19 10° N visible
28 Sep 6.0 00:24:07 23° NNE 00:24:07 23° NNE 00:26:22 10° NNE visible
28 Sep 5.7 02:09:01 19° NNW 02:09:01 19° NNW 02:11:25 10° NNW visible
29 Sep 5.8 00:52:47 24° N 00:52:47 24° N 00:55:09 10° N visible
29 Sep 6.1 02:37:41 12° NW 02:37:41 12° NW 02:38:46 10° NNW visible
29 Sep 6.5 23:36:32 14° NNE 23:36:32 14° NNE 23:37:31 10° NNE visible
30 Sep 5.9 01:21:26 22° NNW 01:21:26 22° NNW 01:23:37 10° N visible
01 Oct 6.3 00:05:11 18° NNE 00:05:11 18° NNE 00:06:41 10° NNE visible
01 Oct 6.0 01:50:04 16° NNW 01:50:04 16° NNW 01:51:43 10° NNW visible
02 Oct 6.2 00:33:48 19° N 00:33:48 19° N 00:35:27 10° N visible
02 Oct 6.3 02:18:42 11° NNW 02:18:42 11° NNW 02:19:02 10° NNW visible
02 Oct 6.7 23:17:32 11° NNE 23:17:32 11° NNE 23:17:51 10° NNE visible
03 Oct 6.2 01:02:26 17° N 01:02:26 17° N 01:03:55 10° N visible
03 Oct 6.5 23:46:08 14° NNE 23:46:08 14° NNE 23:47:00 10° NNE visible
04 Oct 6.3 01:31:02 14° NNW 01:31:02 14° NNW 01:32:00 10° NNW visible
05 Oct 6.4 00:14:45 15° N 00:14:45 15° N 00:15:46 10° N visible
